Regional Weather Roundup
Issued by NWS Little Rock, AR

Home | Current Version | Previous Version | Graphics & Text | Print | Product List | Glossary On
Versions: 1 2 3 4 5 6 7 8 9 10 11 12 13 14 15 16 17 18 19 20 21 22 23 24 25 26 27 28 29 30 31 32 33 34 35 36 37 38 39 40 41 42 43 44 45 46 47 48 49 50
000
ASUS44 KLZK 301305
RWRLZK

WEATHER ROUNDUP FOR ARKANSAS
NATIONAL WEATHER SERVICE LITTLE ROCK AR
800 AM CDT TUE JUN 30 2015

NOTE: "FAIR" INDICATES FEW OR NO CLOUDS BELOW 12,000 FEET WITH NO
SIGNIFICANT WEATHER AND/OR OBSTRUCTIONS TO VISIBILITY.

ARZ001-003-010-029-301400-
NORTHWEST ARKANSAS

CITY           SKY/WX    TMP DP  RH WIND       PRES   REMARKS
FAYETTEVILLE   SUNNY     64  64 100 S5        30.02S
FORT SMITH     SUNNY     74  67  78 W5        29.99R
HARRISON       SUNNY     70  65  84 CALM      30.00S
BENTONVILLE    SUNNY     68  63  83 SW5       30.02S
ROGERS         SUNNY     70  65  84 SW8       30.02S
SILOAM SPGS    SUNNY     68  63  83 CALM      30.02S
HIGHFILL       SUNNY     69  67  93 CALM      30.01S
SPRINGDALE     SUNNY     70  64  83 CALM      30.04R
$$

ARZ004-005-016-301400-
NORTH CENTRAL ARKANSAS

CITY           SKY/WX    TMP DP  RH WIND       PRES   REMARKS
BATESVILLE     SUNNY     70  66  88 CALM      29.96S
FLIPPIN        SUNNY     70  64  83 W3        29.96S
MTN HOME       SUNNY     68  66  93 CALM      29.97S
$$

ARZ040-041-301400-
WEST CENTRAL ARKANSAS

CITY           SKY/WX    TMP DP  RH WIND       PRES   REMARKS
MENA           SUNNY     77  68  73 CALM      30.02R
MOUNT IDA      SUNNY     75  70  84 CALM      29.98R
$$

ARZ009-017-025-026-028-301400-
NORTHEAST ARKANSAS

CITY           SKY/WX    TMP DP  RH WIND       PRES   REMARKS
JONESBORO      SUNNY     74  70  87 W5        29.94R
NEWPORT        SUNNY     76  69  79 W5        29.96S
WALNUT RIDGE   SUNNY     72  66  83 SW3       29.94S
BLYTHEVILLE    SUNNY     76  71  85 W5        29.93F
NW BLYTHEVILLE MOSUNNY   77  68  73 W5        29.93
$$

ARZ022-023-033-042-044-301400-
CENTRAL ARKANSAS

CITY           SKY/WX    TMP DP  RH WIND       PRES   REMARKS
LITTLE ROCK    MOSUNNY   78  70  76 SW5       29.97R
N LITTLE ROCK    N/A     77  72  84 NW6       29.97R
JACKSONVILLE   SUNNY     76  70  82 SW3       29.96R
SEARCY         MOSUNNY   73  70  90 CALM      29.98R
HOT SPRINGS    SUNNY     75  71  87 CALM      29.99R
RUSSELLVILLE   SUNNY     73  67  81 NW3       29.98R
CLINTON        FAIR      68  66  94 CALM      30.00S
$$

ARZ036-301400-
EAST ARKANSAS

CITY           SKY/WX    TMP DP  RH WIND       PRES   REMARKS
WEST MEMPHIS   SUNNY     74  70  87 SW5       29.94S
$$

ARZ050-053-066-070-073-301400-
SOUTHWEST ARKANSAS

CITY           SKY/WX    TMP DP  RH WIND       PRES   REMARKS
ARKADELPHIA    FAIR      78  74  87 SW7       29.99S
CAMDEN         SUNNY     77  72  83 NE5       29.99R
TEXARKANA      SUNNY     78  74  87 SW7       30.00R
EL DORADO      MOSUNNY   77  72  84 SW7       30.00R
DE QUEEN       SUNNY     74  73  97 CALM      29.98R
$$

ARZ056-057-069-301400-
SOUTHEAST ARKANSAS

CITY           SKY/WX    TMP DP  RH WIND       PRES   REMARKS
PINE BLUFF     MOSUNNY   77  72  84 SW7       29.97S
STUTTGART      MOSUNNY   75  70  83 SW8       29.97S
MONTICELLO     CLOUDY    73  72  96 SE6       30.00S

$$




USA.gov is the U.S. government's official web portal to all federal, state and local government web resources and services.